CW7615 Weather Reports


Display with metric or nautical units.
time (UTC)temp
F
wind
direction
speed
MPH
gust
MPH
rain 1hr
in
rain 24hr
in
rain mn
in
humidity
%
barometer
mb
20260901105030 80 149 2.0 11.0 0.00 0.00 0.00 72 1019.0
20260901104531 80 153 3.0 11.0 0.00 0.00 0.00 72 1019.1
20260901104026 80 105 6.0 10.0 0.00 0.00 0.00 72 1019.1
20260901103529 81 100 7.0 10.0 0.00 0.00 0.00 72 1019.2
20260901103028 81 144 5.0 13.0 0.00 0.00 0.00 72 1019.2
20260901102526 81 109 7.0 14.0 0.00 0.00 0.00 72 1019.2
20260901102025 81 104 7.0 14.0 0.00 0.00 0.00 72 1019.1
20260901101529 82 137 4.0 16.0 0.00 0.00 0.00 72 1019.2
20260901101028 82 129 6.0 13.0 0.00 0.00 0.00 72 1019.0
20260901100524 82 142 5.0 13.0 0.00 0.00 0.00 72 1019.0
20260901100026 83 141 7.0 13.0 0.00 0.00 0.00 71 1018.9
20260901095522 82 134 5.0 14.0 0.00 0.00 0.00 71 1018.9
20260901095021 82 146 3.0 11.0 0.00 0.00 0.00 71 1018.8
20260901094520 82 170 3.0 14.0 0.00 0.00 0.00 71 1018.8
20260901094020 82 159 5.0 14.0 0.00 0.00 0.00 70 1018.9
20260901093518 82 165 4.0 9.0 0.00 0.00 0.00 70 1018.8
20260901093017 82 154 2.0 10.0 0.00 0.00 0.00 70 1018.8
20260901092520 82 136 4.0 10.0 0.00 0.00 0.00 70 1018.9
20260901092017 82 131 5.0 10.0 0.00 0.00 0.00 70 1018.9
20260901091515 81 53 2.0 8.0 0.00 0.00 0.00 71 1018.8
20260901091014 81 150 3.0 8.0 0.00 0.00 0.00 72 1018.8
20260901090517 80 175 3.0 7.0 0.00 0.00 0.00 72 1018.7
20260901090016 81 146 2.0 10.0 0.00 0.00 0.00 71 1018.7
20260901085512 82 119 7.0 10.0 0.00 0.00 0.00 69 1018.6
20260901085012 82 97 2.0 7.0 0.00 0.00 0.00 68 1018.5
20260901084511 82 130 3.0 8.0 0.00 0.00 0.00 68 1018.4
20260901084010 82 121 3.0 8.0 0.00 0.00 0.00 67 1018.4
20260901083509 81 89 1.0 6.0 0.00 0.00 0.00 67 1018.3
20260901083007 81 112 2.0 8.0 0.00 0.00 0.00 67 1018.2
20260901082506 80 148 3.0 8.0 0.00 0.00 0.00 68 1018.1
20260901082005 79 142 2.0 4.0 0.00 0.00 0.00 66 1018.2
20260901081504 79 179 2.0 4.0 0.00 0.00 0.00 65 1018.2
20260901081005 80 180 2.0 4.0 0.00 0.00 0.00 64 1018.1
20260901080502 79 264 1.0 2.0 0.00 0.00 0.00 63 1018.1
20260901075559 78 360 0.0 1.0 0.00 0.00 0.00 65 1018.0
20260901075059 77 355 0.0 4.0 0.00 0.00 0.00 67 1018.0
20260901074557 76 355 2.0 4.0 0.00 0.00 0.00 67 1018.1
20260901074055 75 337 1.0 3.0 0.00 0.00 0.00 67 1018.3
20260901073554 75 338 1.0 3.0 0.00 0.00 0.00 67 1018.3
20260901073053 75 315 0.0 3.0 0.00 0.00 0.00 69 1018.3
20260901072552 75 318 1.0 2.0 0.00 0.00 0.00 69 1018.3
20260901072053 75 325 0.0 0.0 0.00 0.00 0.00 68 1018.3
20260901071552 75 325 0.0 0.0 0.00 0.00 0.00 68 1018.2
20260901071051 75 325 0.0 0.0 0.00 0.00 0.00 68 1018.1
20260901070550 75 325 0.0 0.0 0.00 0.00 0.00 68 1018.1
20260901070056 75 327 0.0 2.0 0.00 0.00 0.00 66 1018.1
20260901065551 75 327 0.0 4.0 0.00 0.00 0.00 66 1018.0
20260901065051 74 333 2.0 4.0 0.00 0.00 0.00 66 1018.1
20260901064553 74 339 1.0 3.0 0.00 0.00 0.00 66 1018.1
20260901064051 74 340 1.0 4.0 0.00 0.00 0.00 67 1018.1
20260901063550 74 340 1.0 4.0 0.00 0.00 0.00 67 1018.2
20260901063052 74 355 1.0 5.0 0.00 0.00 0.00 68 1018.1
20260901062551 74 311 2.0 5.0 0.00 0.00 0.00 69 1018.1
20260901062047 74 288 2.0 5.0 0.00 0.00 0.00 69 1017.9
20260901061546 73 304 3.0 5.0 0.00 0.00 0.00 70 1017.8
20260901061044 73 285 2.0 4.0 0.00 0.00 0.00 70 1017.7
20260901060543 73 347 0.0 0.0 0.00 0.00 0.00 70 1017.5
20260901060043 73 360 0.0 0.0 0.00 0.00 0.00 69 1017.5
20260901055542 73 360 0.0 0.0 0.00 0.00 0.00 68 1017.4
20260901055042 73 360 0.0 0.0 0.00 0.00 0.00 65 1017.3
20260901054542 73 360 0.0 0.0 0.00 0.00 0.00 65 1017.3
20260901054042 73 360 0.0 3.0 0.00 0.00 0.00 64 1017.2
20260901053544 73 360 1.0 3.0 0.00 0.00 0.00 64 1017.1
20260901053042 73 5 1.0 3.0 0.00 0.00 0.00 64 1017.1
20260901052541 73 5 0.0 0.0 0.00 0.00 0.00 66 1017.1
20260901052043 73 5 0.0 0.0 0.00 0.00 0.00 68 1017.2
20260901051545 73 32 0.0 0.0 0.00 0.00 0.00 68 1017.2
20260901051044 73 32 0.0 0.0 0.00 0.00 0.00 68 1017.3
20260901050540 73 32 0.0 0.0 0.00 0.00 0.00 68 1017.2
20260901050040 73 32 0.0 0.0 0.00 0.00 0.00 68 1017.0
20260901045543 73 32 0.0 0.0 0.00 0.00 0.00 67 1017.0
20260901045039 74 32 0.0 2.0 0.00 0.00 0.00 67 1016.9
20260901044552 74 32 1.0 4.0 0.00 0.00 0.00 66 1016.7
20260901044039 74 20 1.0 4.0 0.00 0.00 0.00 65 1016.6
20260901043539 73 327 1.0 3.0 0.00 0.00 0.00 64 1016.6
20260901043039 73 321 0.0 4.0 0.00 0.00 0.00 65 1016.7
20260901042538 73 327 2.0 4.0 0.00 0.00 0.00 65 1016.6
20260901042038 73 360 3.0 4.0 0.00 0.00 0.00 66 1016.6
20260901041537 73 340 2.0 4.0 0.00 0.00 0.00 65 1016.5
20260901041037 73 336 1.0 4.0 0.00 0.00 0.00 69 1016.7
20260901040537 74 348 2.0 4.0 0.00 0.00 0.00 71 1016.6
20260901040038 74 282 1.0 4.0 0.00 0.00 0.00 70 1016.6
20260901035539 74 321 2.0 6.0 0.00 0.00 0.00 71 1016.6
20260901035039 73 355 2.0 6.0 0.00 0.00 0.00 67 1016.7
20260901034535 73 355 1.0 3.0 0.00 0.00 0.00 68 1016.8
20260901034035 73 5 0.0 3.0 0.00 0.00 0.00 67 1016.8
20260901033534 73 5 1.0 3.0 0.00 0.00 0.00 66 1016.9
20260901033034 73 5 1.0 4.0 0.00 0.00 0.00 67 1016.8
20260901032534 73 5 2.0 4.0 0.00 0.00 0.00 68 1016.9
20260901032035 73 344 1.0 4.0 0.00 0.00 0.00 69 1017.0
20260901031531 73 348 0.0 3.0 0.00 0.00 0.00 71 1017.1
20260901031030 73 348 0.0 4.0 0.00 0.00 0.00 71 1017.1
20260901030530 73 350 1.0 4.0 0.00 0.00 0.00 70 1017.1
20260901030039 73 17 0.0 3.0 0.00 0.00 0.00 70 1017.2
20260901025533 74 17 0.0 1.0 0.00 0.00 0.00 70 1017.3
20260901025030 74 17 0.0 3.0 0.00 0.00 0.00 70 1017.4
20260901024531 74 17 1.0 4.0 0.00 0.00 0.00 70 1017.3
20260901024028 74 19 1.0 4.0 0.00 0.00 0.00 70 1017.2
20260901023529 74 355 1.0 3.0 0.00 0.00 0.00 69 1017.2
20260901023032 74 355 1.0 3.0 0.00 0.00 0.00 68 1017.2
20260901022526 74 346 0.0 3.0 0.00 0.00 0.00 66 1017.3
20260901022026 74 346 0.0 3.0 0.00 0.00 0.00 66 1017.5
20260901021529 74 320 2.0 3.0 0.00 0.00 0.00 65 1017.4
20260901021025 74 11 1.0 3.0 0.00 0.00 0.00 65 1017.4
20260901020525 74 63 0.0 2.0 0.00 0.00 0.00 63 1017.3
20260901020024 74 63 0.0 3.0 0.00 0.00 0.00 63 1017.3
20260901015523 74 63 1.0 3.0 0.00 0.00 0.00 62 1017.3
20260901015023 74 113 0.0 1.0 0.00 0.00 0.00 60 1017.4
20260901014522 74 113 0.0 3.0 0.00 0.00 0.00 59 1017.5
20260901014022 75 113 1.0 4.0 0.00 0.00 0.00 58 1017.5
20260901013526 75 117 1.0 9.0 0.00 0.00 0.00 56 1017.7
20260901013022 75 124 4.0 9.0 0.00 0.00 0.00 56 1017.6
20260901012526 76 109 5.0 9.0 0.00 0.00 0.00 56 1017.5
20260901012024 77 87 3.0 9.0 0.00 0.00 0.00 57 1017.4
20260901011522 77 69 2.0 6.0 0.00 0.00 0.00 52 1017.4
20260901011020 77 360 3.0 6.0 0.00 0.00 0.00 52 1017.2
20260901010518 77 348 4.0 14.0 0.00 0.00 0.00 52 1017.1
20260901010017 76 5 7.0 14.0 0.00 0.00 0.00 53 1017.2
20260901005514 76 360 6.0 10.0 0.00 0.00 0.00 54 1017.1
20260901005014 76 351 4.0 9.0 0.00 0.00 0.00 55 1017.2
20260901004529 75 351 4.0 8.0 0.00 0.00 0.00 55 1017.2
20260901004010 75 283 1.0 3.0 0.00 0.00 0.00 55 1017.4
20260901003511 75 355 0.0 4.0 0.00 0.00 0.00 55 1017.5
20260901003010 75 355 0.0 9.0 0.00 0.00 0.00 56 1017.4
20260901002509 75 21 4.0 9.0 0.00 0.00 0.00 55 1017.6
20260901002009 74 339 5.0 9.0 0.00 0.00 0.00 56 1017.7
20260901001519 74 351 5.0 8.0 0.00 0.00 0.00 57 1017.9
20260901001008 74 13 4.0 6.0 0.00 0.00 0.00 57 1018.2
20260901000511 74 360 2.0 5.0 0.00 0.00 0.00 57 1018.5
20260901000012 74 18 0.0 5.0 0.00 0.00 0.00 57 1018.8
20260831235505 74 15 2.0 5.0 0.00 0.00 0.00 57 1018.8
20260831235007 74 25 3.0 5.0 0.00 0.00 0.00 57 1018.8
20260831234505 74 5 2.0 5.0 0.00 0.00 0.00 57 1018.8
20260831234004 74 5 3.0 6.0 0.00 0.00 0.00 57 1018.8
20260831233504 74 332 4.0 6.0 0.00 0.00 0.00 57 1018.8
20260831233003 74 347 3.0 6.0 0.00 0.00 0.00 57 1018.8
20260831232503 74 355 2.0 5.0 0.00 0.00 0.00 57 1018.9
20260831232004 74 323 1.0 4.0 0.00 0.00 0.00 57 1018.9
20260831231503 74 315 2.0 4.0 0.00 0.00 0.00 57 1018.9
20260831231004 74 338 1.0 4.0 0.00 0.00 0.00 58 1018.9
20260831230503 74 333 1.0 5.0 0.00 0.00 0.00 58 1018.9
20260831230002 74 30 2.0 5.0 0.00 0.00 0.00 58 1018.9
20260831225501 74 355 3.0 4.0 0.00 0.00 0.00 58 1018.8
20260831225000 74 348 2.0 4.0 0.00 0.00 0.00 58 1019.0
20260831224602 74 25 2.0 4.0 0.00 0.00 0.00 58 1018.9
20260831224059 74 159 1.0 2.0 0.00 0.00 0.00 57 1019.2
20260831223603 75 159 0.0 2.0 0.00 0.00 0.00 57 1019.2
20260831223103 75 159 0.0 2.0 0.00 0.00 0.00 57 1019.1
20260831222600 75 159 0.0 5.0 0.00 0.00 0.00 56 1019.2
20260831222058 75 159 1.0 5.0 0.00 0.00 0.00 56 1019.2
20260831221557 74 278 1.0 3.0 0.00 0.00 0.00 57 1019.1
20260831221055 74 355 1.0 3.0 0.00 0.00 0.00 57 1019.0
20260831220554 74 308 0.0 5.0 0.00 0.00 0.00 58 1018.8
20260831220154 74 323 2.0 5.0 0.00 0.00 0.00 58 1018.7
20260831215552 74 340 1.0 3.0 0.00 0.00 0.00 59 1018.6
20260831215051 74 302 0.0 2.0 0.00 0.00 0.00 59 1018.5
20260831214620 75 302 0.0 2.0 0.00 0.00 0.00 59 1018.4
20260831214050 75 302 0.0 2.0 0.00 0.00 0.00 58 1018.3
20260831213550 75 302 0.0 4.0 0.00 0.00 0.00 58 1018.2
20260831213050 75 348 2.0 4.0 0.00 0.00 0.00 58 1018.2
20260831212550 75 360 2.0 4.0 0.00 0.00 0.00 58 1018.3
20260831212051 75 5 0.0 2.0 0.00 0.00 0.00 58 1018.4
20260831211549 75 5 0.0 2.0 0.00 0.00 0.00 57 1018.4
20260831211052 76 5 0.0 3.0 0.00 0.00 0.00 57 1018.3
20260831210550 76 5 1.0 3.0 0.00 0.00 0.00 57 1018.3
20260831210049 76 5 1.0 3.0 0.00 0.00 0.00 57 1018.2
20260831205548 76 5 1.0 3.0 0.00 0.00 0.00 57 1018.1
20260831205049 76 5 0.0 3.0 0.00 0.00 0.00 57 1018.2
20260831204555 76 5 1.0 5.0 0.00 0.00 0.00 57 1018.2
20260831204048 76 5 2.0 5.0 0.00 0.00 0.00 57 1018.3
20260831203549 76 26 2.0 4.0 0.00 0.00 0.00 57 1018.2
20260831203050 76 28 0.0 6.0 0.00 0.00 0.00 57 1018.3
20260831202547 76 350 3.0 5.0 0.00 0.00 0.00 56 1018.2
20260831202047 76 5 3.0 5.0 0.00 0.00 0.00 56 1018.1
20260831201549 76 355 3.0 5.0 0.00 0.00 0.00 56 1017.9
20260831201047 76 355 2.0 5.0 0.00 0.00 0.00 56 1017.8
20260831200647 76 360 2.0 5.0 0.00 0.00 0.00 56 1017.7
20260831200050 76 5 2.0 5.0 0.00 0.00 0.00 56 1017.5
20260831195546 76 5 1.0 3.0 0.00 0.00 0.00 56 1017.5
20260831195046 76 360 1.0 4.0 0.00 0.00 0.00 56 1017.5
20260831194548 76 9 2.0 5.0 0.00 0.00 0.00 56 1017.4
20260831194046 76 360 3.0 5.0 0.00 0.00 0.00 57 1017.3
20260831193546 76 5 2.0 5.0 0.00 0.00 0.00 57 1017.4
20260831193045 76 12 2.0 5.0 0.00 0.00 0.00 57 1017.5
20260831192544 76 5 1.0 4.0 0.00 0.00 0.00 57 1017.4
20260831192044 76 31 1.0 3.0 0.00 0.00 0.00 57 1017.5
20260831191544 76 128 0.0 1.0 0.00 0.00 0.00 57 1017.5
20260831191050 76 128 0.0 1.0 0.00 0.00 0.00 57 1017.5
20260831190544 76 128 0.0 0.0 0.00 0.00 0.00 57 1017.5
20260831185545 76 128 0.0 1.0 0.00 0.00 0.00 57 1017.4
20260831185047 76 128 0.0 0.0 0.00 0.00 0.00 57 1017.3
20260831184549 76 128 0.0 0.0 0.00 0.00 0.00 58 1017.3
20260831184043 76 128 0.0 0.0 0.00 0.00 0.00 58 1017.2
20260831183543 77 128 0.0 0.0 0.00 0.00 0.00 57 1017.2
20260831183056 77 128 0.0 0.0 0.00 0.00 0.00 57 1017.2
20260831182543 77 128 0.0 1.0 0.00 0.00 0.00 56 1017.1
20260831182043 77 128 0.0 2.0 0.00 0.00 0.00 56 1017.1
20260831181542 77 128 1.0 3.0 0.00 0.00 0.00 56 1017.1
20260831181042 78 128 1.0 3.0 0.00 0.00 0.00 56 1017.0
20260831180543 78 128 1.0 3.0 0.00 0.00 0.00 55 1017.0
20260831180042 79 128 1.0 4.0 0.00 0.00 0.00 54 1017.1
20260831175542 79 128 2.0 4.0 0.00 0.00 0.00 54 1016.9
20260831175042 80 126 1.0 3.0 0.00 0.00 0.00 52 1016.9
20260831174542 80 128 0.0 3.0 0.00 0.00 0.00 49 1016.8
20260831174041 80 128 0.0 3.0 0.00 0.00 0.00 50 1016.8
20260831173544 80 127 0.0 2.0 0.00 0.00 0.00 49 1016.7
20260831173040 81 127 1.0 2.0 0.00 0.00 0.00 48 1016.6
20260831172540 81 127 0.0 1.0 0.00 0.00 0.00 50 1016.6
20260831172040 80 127 0.0 1.0 0.00 0.00 0.00 50 1016.6
20260831171542 80 127 0.0 2.0 0.00 0.00 0.00 51 1016.6
20260831171040 80 127 0.0 2.0 0.00 0.00 0.00 51 1016.6
20260831170540 79 127 1.0 2.0 0.00 0.00 0.00 53 1016.6
20260831170041 79 127 1.0 2.0 0.00 0.00 0.00 53 1016.6
20260831165540 79 127 1.0 4.0 0.00 0.00 0.00 54 1016.6
20260831165039 79 127 2.0 4.0 0.00 0.00 0.00 54 1016.7
20260831164544 80 127 2.0 4.0 0.00 0.00 0.00 54 1016.6
20260831164039 79 128 2.0 7.0 0.00 0.00 0.00 55 1016.6
20260831163538 80 123 3.0 6.0 0.00 0.00 0.00 55 1016.7
20260831163042 80 124 2.0 5.0 0.00 0.00 0.00 54 1016.7
20260831162540 80 130 3.0 7.0 0.00 0.00 0.00 56 1016.7
20260831162038 80 123 4.0 7.0 0.00 0.00 0.00 57 1016.6
20260831161538 80 137 4.0 7.0 0.00 0.00 0.00 58 1016.6
20260831161038 81 123 3.0 6.0 0.00 0.00 0.00 58 1016.6
20260831160539 81 131 2.0 6.0 0.00 0.00 0.00 58 1016.5
20260831160044 81 145 2.0 6.0 0.00 0.00 0.00 58 1016.4
20260831155537 81 136 2.0 6.0 0.00 0.00 0.00 59 1016.4
20260831155037 81 123 3.0 6.0 0.00 0.00 0.00 58 1016.5
20260831154540 80 128 2.0 7.0 0.00 0.00 0.00 59 1016.6
20260831154036 81 113 3.0 7.0 0.00 0.00 0.00 60 1016.5
20260831153536 80 128 1.0 5.0 0.00 0.00 0.00 60 1016.6
20260831153036 80 130 2.0 7.0 0.00 0.00 0.00 60 1016.6
20260831152535 80 146 2.0 7.0 0.00 0.00 0.00 61 1016.7
20260831152036 79 129 4.0 8.0 0.00 0.00 0.00 61 1016.6
20260831151538 80 142 4.0 8.0 0.00 0.00 0.00 62 1016.7
20260831151037 80 115 5.0 10.0 0.00 0.00 0.00 62 1016.8
20260831150536 80 134 6.0 10.0 0.00 0.00 0.00 62 1016.8
20260831150035 81 175 3.0 9.0 0.00 0.00 0.00 62 1016.7
20260831145533 81 117 3.0 9.0 0.00 0.00 0.00 60 1016.7
20260831145032 81 108 4.0 9.0 0.00 0.00 0.00 58 1016.8
20260831144533 81 140 5.0 10.0 0.00 0.00 0.00 59 1016.8
20260831144031 82 165 6.0 10.0 0.00 0.00 0.00 57 1016.7
20260831143535 83 118 6.0 10.0 0.00 0.00 0.00 54 1016.8
20260831143031 84 134 4.0 9.0 0.00 0.00 0.00 50 1016.7
20260831142530 84 117 5.0 9.0 0.00 0.00 0.00 49 1016.7
20260831142028 85 151 5.0 8.0 0.00 0.00 0.00 48 1016.8
20260831141529 84 130 4.0 8.0 0.00 0.00 0.00 47 1016.8
20260831141026 85 127 5.0 8.0 0.00 0.00 0.00 48 1016.9
20260831140525 84 139 3.0 8.0 0.00 0.00 0.00 47 1016.8
20260831140036 84 128 4.0 8.0 0.00 0.00 0.00 46 1016.9
20260831135525 84 113 3.0 7.0 0.00 0.00 0.00 46 1016.9
20260831135027 84 128 3.0 8.0 0.00 0.00 0.00 46 1016.9
20260831134527 84 128 5.0 8.0 0.00 0.00 0.00 46 1017.0
20260831134024 84 126 4.0 7.0 0.00 0.00 0.00 45 1017.0
20260831133524 84 148 4.0 7.0 0.00 0.00 0.00 46 1017.1
20260831132524 83 128 3.0 8.0 0.00 0.00 0.00 45 1017.2
20260831132024 83 111 4.0 8.0 0.00 0.00 0.00 45 1017.2
20260831131533 83 125 3.0 7.0 0.00 0.00 0.00 46 1017.3
20260831131022 83 125 4.0 9.0 0.00 0.00 0.00 47 1017.2
20260831130522 84 128 6.0 11.0 0.00 0.00 0.00 46 1017.2
20260831130034 84 111 7.0 11.0 0.00 0.00 0.00 45 1017.3
20260831125522 85 119 7.0 11.0 0.00 0.00 0.00 45 1017.1
20260831125022 85 132 5.0 9.0 0.00 0.00 0.00 45 1017.0
20260831124522 85 126 6.0 9.0 0.00 0.00 0.00 45 1017.1
20260831124021 84 113 3.0 9.0 0.00 0.00 0.00 44 1017.2
20260831123524 84 118 5.0 9.0 0.00 0.00 0.00 45 1017.3
20260831123022 85 119 5.0 9.0 0.00 0.00 0.00 44 1017.3
20260831122520 85 117 5.0 8.0 0.00 0.00 0.00 44 1017.3
20260831122020 85 111 5.0 8.0 0.00 0.00 0.00 44 1017.4
20260831121520 85 117 5.0 8.0 0.00 0.00 0.00 43 1017.5
20260831121019 85 146 3.0 7.0 0.00 0.00 0.00 44 1017.5
20260831120517 85 123 3.0 7.0 0.00 0.00 0.00 44 1017.6
20260831120016 84 102 4.0 7.0 0.00 0.00 0.00 44 1017.7
20260831115517 84 118 3.0 7.0 0.00 0.00 0.00 45 1017.7
20260831115013 83 120 4.0 8.0 0.00 0.00 0.00 45 1017.9
20260831114512 83 111 2.0 8.0 0.00 0.00 0.00 46 1017.9
20260831114012 83 100 6.0 8.0 0.00 0.00 0.00 46 1018.1
20260831113511 83 126 4.0 8.0 0.00 0.00 0.00 47 1018.1
20260831113010 83 119 5.0 9.0 0.00 0.00 0.00 46 1018.2
20260831112509 83 108 5.0 10.0 0.00 0.00 0.00 46 1018.2
20260831112007 83 129 6.0 10.0 0.00 0.00 0.00 46 1018.1
20260831111513 83 107 5.0 9.0 0.00 0.00 0.00 46 1018.1
20260831111005 83 117 6.0 9.0 0.00 0.00 0.00 45 1018.1
20260831110503 83 117 3.0 8.0 0.00 0.00 0.00 45 1018.0
20260831110005 83 105 2.0 7.0 0.00 0.00 0.00 45 1018.2
20260831105501 83 101 2.0 8.0 0.00 0.00 0.00 46 1018.1
20260831105100 83 154 5.0 8.0 0.00 0.00 0.00 46 1018.1